Starlink 6290

operational
NORAD ID: 57328 Int'l Des: 2023-099 Owner: SPXS Country: US Constellation: starlink
LEOCIRCULAR

Starlink 6290について

説明を読み込み中...

リアルタイム位置

3D地球を読み込み中...

次回通過

高度履歴

Altitude vs Time

uPlot chart will show altitude changes over time

軌道要素

1 57328U 23099A 25303.86478252 -.00000943 00000-0 -54746-4 0 9991
2 57328 43.0040 234.7460 0001578 282.3230 77.7435 15.02526166127495
Epoch: Oct 30, 2025 • Age: 25 hours

現在のステータス

高度 563.7 km
速度 7.58 km/s
衛星直下点 -21.09°S, 68.59°E
打ち上げ日 Jul 16, 2023
運用期間 2.2 years
タイプ internet

技術仕様

分類 Payload
質量 305.00 kg
乾燥質量 290.00 kg
総質量 305.00 kg
長さ 0.20 m
直径 2.80 m
スパン 9.00 m
形状 Box + pan
製造者 SPXS
バスタイプ Starlink
フェーズステータス In Orbit
所有者/国 SPXS/US

大規模コンステレーション

Loading constellations...